Zurück zum Katalog

CZ-6A DEB

AktivPO
NORAD 61278·DEBRIS·🇨🇳 China

Gestartet Aug 6, 2024 von Taiyuan Satellite Launch Center

Loading…

Nächste Überflüge (nächste 24 Stunden)

TLE

AktuellSource: Space-Track

Epoche: Sep 14, 2026, 11:27 UTC

1 61278U 24140SP  26257.47739948  .00001192  00000-0  46135-3 0  9993
2 61278  89.0073 264.5294 0013560 199.5406 160.5271 14.29446876106789

Verfolge CZ-6A DEB in Echtzeit mit AllMySat

Download on the App Store